Location: Gwatt
(46.7204°N, 7.6223°E)
Time: 14:58:17
(UTC+00:00)

CZ-2C R/B - Pass Details

Date: 18 September 2020
Orbit: 391 x 588 km, 35.0° (Epoch: 24 October)

Event Time Altitude Azimuth Distance (km) Brightness Sun altitude
Rises 18:59:06 0° 233° (SW) 2,436 5.1 -15.0°
Reaches altitude 10° 19:02:29 10° 199° (SSW) 1,517 3.6 -15.6°
Maximum altitude 19:03:44 12° 178° (S) 1,407 3.2 -15.8°
Enters shadow 19:03:49 12° 176° (S) 1,407 3.2 -15.8°
